Location: Newark
(48.2308°N, 120.8549°W)
Time: 20:34:29
(UTC+00:00)

Vanguard 1 Rocket - Visible Passes

Search period start: 25 May 2020 00:00
Search period end: 04 June 2020 00:00
Orbit: 653 x 4224 km, 34.3° (Epoch: 23 May)

Date Brightness Start Highest point End Pass type
(mag) Time Alt. Az. Time Alt. Az. Time Alt. Az.
25 May 9.8 09:19:10 22° S 09:22:25 24° SSE 09:29:27 10° ESE visible
26 May 10.2 08:10:55 21° SSE 08:10:55 21° SSE 08:18:12 10° ESE visible
26 May 9.3 10:28:05 15° SW 10:36:48 31° S 10:43:24 10° ESE visible
27 May 10.6 07:02:26 14° SE 07:02:26 14° SE 07:05:40 10° ESE visible
27 May 9.7 09:19:33 23° SSW 09:25:15 30° SSE 09:33:00 10° ESE visible
28 May11.005:53:35ESE05:53:35ESE05:33:01Svisible
28 May 10.1 08:10:41 25° S 08:13:17 26° SSE 08:22:06 10° ESE visible
28 May 9.3 10:27:46 11° WSW 10:39:38 35° S 10:46:37 10° ESE visible
29 May 10.4 07:01:04 22° SSE 07:01:04 22° SSE 07:10:21 10° ESE visible
29 May 9.6 09:18:02 18° SW 09:28:02 35° S 09:36:20 10° ESE visible
30 May 10.8 05:37:38 10° S 05:48:25 16° SE 05:56:56 10° ESE visible
30 May 9.9 08:00:02 10° SW 08:15:59 32° SSE 08:25:38 10° ESE visible
30 May 9.2 10:29:21 10° WSW 10:42:25 37° S 10:49:44 10° ESE visible
31 May 10.3 06:47:15 10° SSW 07:03:32 27° SSE 07:14:17 10° ESE visible
31 May 9.5 09:15:06 10° SW 09:30:47 39° S 09:39:33 10° ESE visible
01 Jun 10.7 05:35:56 10° S 05:50:50 21° SSE 06:01:50 10° ESE visible
01 Jun 9.9 08:01:01 10° SW 08:18:38 37° SSE 08:28:57 10° ESE visible
01 Jun 9.3 10:31:23 10° WSW 10:45:09 39° S 10:52:46 10° ESE visible
02 Jun 11.0 04:27:24 10° SSE 04:38:05 15° SE 04:47:05 10° ESE visible
02 Jun 10.2 06:47:36 10° SSW 07:06:03 33° SSE 07:17:49 10° ESE visible
02 Jun 9.5 09:16:46 10° WSW 09:33:28 42° S 09:42:39 10° ESE visible
03 Jun 10.6 05:35:23 10° SSW 05:53:12 27° SSE 06:05:51 10° E visible
03 Jun 9.8 08:02:16 10° SW 08:21:14 42° S 08:32:08 10° ESE visible
03 Jun 9.3 10:33:29 10° WSW 10:47:48 39° SSW 10:55:44 10° SE visible
